Weather History for KENW - June, 2013

Change the Weather History Date:

Monday, June 17, 2013

  Actual Average Record
Temperature  
Mean Temperature 72 °F -  
Max Temperature 88 °F 74 °F 94 °F (1984)
Min Temperature 55 °F 54 °F 42 °F (1982)
Cooling Degree Days 7    
Growing Degree Days 22 (Base 50)    
Moisture  
Dew Point 56 °F    
Average Humidity 62    
Maximum Humidity 84    
Minimum Humidity 32    
Precipitation  
Precipitation 0.00 in - - ()
Sea Level Pressure  
Sea Level Pressure 29.90 in    
Wind  
Wind Speed 6 mph (NW)    
Max Wind Speed 16 mph    
Max Gust Speed 29 mph    
Visibility 10 miles    
Events      
Averages and records for this station are not official NWS values.
T = Trace of Precipitation, MM = Missing Value Source: NWS Daily Summary

Daily Weather History Graph

Daily Weather History Graph

Search for Another Location

Airport or City:

Trip Planner

Search our weather history database for the weather conditions in past years. The results will help you decide how hot, cold, wet, or windy it might be!

Date:

Astronomy

Jun. 17, 2013 Rise Set
Actual Time 5:13 AM CDT 8:32 PM CDT
Civil Twilight 4:38 AM CDT 9:07 PM CDT
Nautical Twilight 3:53 AM CDT 9:52 PM CDT
Astronomical Twilight 2:57 AM CDT 10:48 PM CDT
Moon 2:03 PM CDT (6/17) 12:56 AM CDT (6/17)
Length of Visible Light 16h 28m
Length of Day
15h 18m
First Quarter, 60% of the Moon is Illuminated
Jun 17
First Quarter
Jun 23
Full
Jun 29
Last Quarter
Jul 8
New
Jul 15
First Quarter

Hourly Weather History & Observations

Time (CDT) Temp. Heat Index Dew Point Humidity Pressure Visibility Wind Dir Wind Speed Gust Speed Precip Events Conditions
12:53 AM 63.0 °F - 57.9 °F 84% 29.91 in 10.0 mi WSW 3.5 mph - N/A   Clear
1:53 AM 61.0 °F - 55.9 °F 83% 29.89 in 10.0 mi SW 3.5 mph - N/A   Clear
2:53 AM 59.0 °F - 54.0 °F 83% 29.90 in 10.0 mi West 3.5 mph - N/A   Clear
3:53 AM 59.0 °F - 54.0 °F 83% 29.91 in 10.0 mi Calm Calm - N/A   Clear
4:53 AM 57.9 °F - 53.1 °F 84% 29.89 in 10.0 mi Calm Calm - N/A   Clear
5:53 AM 62.1 °F - 55.0 °F 78% 29.90 in 10.0 mi Calm Calm - N/A   Overcast
6:53 AM 64.9 °F - 60.1 °F 84% 29.90 in 10.0 mi SSW 3.5 mph - N/A   Mostly Cloudy
7:53 AM 69.1 °F - 59.0 °F 70% 29.91 in 10.0 mi Calm Calm - N/A   Partly Cloudy
8:53 AM 75.9 °F - 57.9 °F 54% 29.93 in 10.0 mi WSW 9.2 mph - N/A   Clear
9:53 AM 79.0 °F - 57.9 °F 48% 29.91 in 10.0 mi West 12.7 mph - N/A   Clear
10:53 AM 82.0 °F 82.1 °F 59.0 °F 45% 29.90 in 10.0 mi West 10.4 mph - N/A   Clear
11:53 AM 84.0 °F 83.3 °F 57.0 °F 40% 29.89 in 10.0 mi West 12.7 mph - N/A   Clear
12:53 PM 86.0 °F 84.9 °F 57.0 °F 37% 29.88 in 10.0 mi West 11.5 mph - N/A   Clear
1:53 PM 87.1 °F 85.9 °F 57.0 °F 36% 29.88 in 10.0 mi West 12.7 mph 19.6 mph N/A   Clear
2:53 PM 87.1 °F 85.1 °F 54.0 °F 32% 29.87 in 10.0 mi WNW 11.5 mph 19.6 mph N/A   Scattered Clouds
3:53 PM 84.9 °F 83.3 °F 54.0 °F 34% 29.86 in 10.0 mi NNW 9.2 mph 18.4 mph N/A   Scattered Clouds
4:53 PM 87.1 °F 85.7 °F 55.9 °F 35% 29.84 in 10.0 mi NNW 5.8 mph - N/A   Scattered Clouds
5:31 PM 80.6 °F 80.8 °F 57.2 °F 45% 29.88 in 10.0 mi NE 16.1 mph 28.8 mph N/A   Scattered Clouds
5:49 PM 75.2 °F - 57.2 °F 53% 29.88 in 10.0 mi NE 10.4 mph - N/A   Scattered Clouds
5:53 PM 75.0 °F - 57.9 °F 55% 29.87 in 10.0 mi NE 13.8 mph - N/A   Scattered Clouds
6:53 PM 64.9 °F - 55.9 °F 73% 29.90 in 10.0 mi NNE 12.7 mph - N/A   Scattered Clouds
7:53 PM 62.1 °F - 52.0 °F 70% 29.94 in 10.0 mi NE 13.8 mph 21.9 mph N/A   Mostly Cloudy
8:53 PM 61.0 °F - 52.0 °F 72% 29.94 in 10.0 mi NE 5.8 mph - N/A   Mostly Cloudy
9:53 PM 59.0 °F - 52.0 °F 78% 29.97 in 10.0 mi North 4.6 mph - N/A   Partly Cloudy
10:53 PM 57.0 °F - 52.0 °F 83% 29.97 in 10.0 mi NNE 10.4 mph - N/A   Partly Cloudy
11:53 PM 55.9 °F - 51.1 °F 84% 29.96 in 10.0 mi NNE 8.1 mph - N/A   Clear